Tracking 29892 objects as of 21-Nov-2024
HD Live streaming from Space Station
objects crossing your sky now

CZ-6A DEB

Track CZ-6A DEB now!
10-day predictions


NORAD ID: 54591
Int'l Code: 2022-151MR
Perigee: 603.3 km
Apogee: 794.7 km
Inclination: 98.8 °
Period: 98.6 minutes
Semi major axis: 7070 km
RCS: Unknown
Launch date: November 11, 2022
Source: People's Republic of China (PRC)
Launch site: Taiyaun Space Center, China (TSC)

Note: This is SATELLITE DEBRIS
Your satellite tracking list
Your tracking list is empty




NASA's NSSDC Master Catalog

Two Line Element Set (TLE):
1 54591U 22151MR  24325.58883538  .00024315  00000-0  44102-2 0  9997
2 54591  98.7552   8.2284 0135406 253.4777 105.1510 14.60402215106364
Source of the keplerian elements: AFSPC